QPF
0.05 0.00 0.00 0.01 0.00 0.00 0.00 0.01 0.04 0.02 0.01 0.00 0.00 0.01 0.02 0.00 0.00 0.00 0.00 0.01 0.02 0.04 0.10 0.17 0.02 0.00 0.00 0.00 0.00 0.00 0.00 0.00 0.00 0.00 0.00 0.01 0.01 0.00 0.00 0.00 0.00 0.00 0.00
0.00 0.00 0.01 0.01 0.00 0.00 0.00 0.01 0.03 0.05 0.03 0.00 0.02 0.01 0.00 0.00 0.00 0.00 0.00 0.03 0.07 0.02 0.05 0.12 0.09 0.02 0.02 0.00 0.00 0.00 0.00 0.00 0.00 0.00 0.00 0.00 0.02 0.02 0.00 0.00 0.00 0.00 0.00
0.00 0.01 0.00 0.00 0.00 0.01 0.00 0.00 0.00 0.00 0.01 0.00 0.03 0.02 0.01 0.00 0.00 0.00 0.00 0.00 0.01 0.02 0.05 0.06 0.12 0.07 0.05 0.06 0.10 0.07 0.00 0.02 0.00 0.01 0.01 0.01 0.00 0.02 0.03 0.03 0.01 0.00 0.02
0.03 0.07 0.08 0.07 0.12 0.15 0.09 0.04 0.01 0.01 0.00 0.00 0.00 0.00 0.00 0.00 0.00 0.00 0.00 0.00 0.00 0.00 0.01 0.04 0.06 0.07 0.08 0.05 0.06 0.13 0.07 0.07 0.01 0.00 0.02 0.02 0.01 0.01 0.02 0.03 0.04 0.02 0.02
0.06 0.15 0.07 0.23 0.29 0.13 0.06 0.03 0.05 0.07 0.00 0.00 0.00 0.00 0.00 0.00 0.00 0.00 0.00 0.00 0.00 0.00 0.00 0.02 0.13 0.13 0.07 0.08 0.07 0.08 0.09 0.08 0.04 0.02 0.03 0.02 0.02 0.02 0.01 0.02 0.02 0.01 0.02
0.01 0.01 0.03 0.02 0.01 0.01 0.00 0.00 0.02 0.03 0.00 0.00 0.00 0.00 0.00 0.00 0.00 0.00 0.00 0.00 0.00 0.00 0.00 0.00 0.05 0.07 0.17 0.17 0.19 0.19 0.15 0.08 0.09 0.07 0.05 0.11 0.16 0.16 0.11 0.07 0.05 0.03 0.01
0.00 0.00 0.00 0.00 0.00 0.00 0.00 0.00 0.01 0.03 0.00 0.01 0.00 0.00 0.00 0.00 0.00 0.00 0.00 0.00 0.01 0.07 0.01 0.00 0.00 0.01 0.07 0.26 0.25 0.20 0.24 0.19 0.17 0.16 0.14 0.16 0.15 0.14 0.12 0.11 0.08 0.05 0.05
0.01 0.00 0.00 0.03 0.02 0.01 0.00 0.00 0.00 0.00 0.00 0.03 0.01 0.01 0.01 0.01 0.01 0.01 0.00 0.00 0.00 0.04 0.01 0.00 0.00 0.00 0.01 0.13 0.16 0.29 0.25 0.20 0.21 0.20 0.13 0.10 0.07 0.08 0.08 0.08 0.09 0.11 0.12
0.00 0.00 0.00 0.02 0.00 0.00 0.00 0.00 0.00 0.00 0.00 0.03 0.01 0.01 0.01 0.01 0.00 0.00 0.00 0.00 0.00 0.01 0.00 0.03 0.01 0.01 0.00 0.03 0.12 0.16 0.12 0.12 0.17 0.27 0.51 0.61 0.11 0.08 0.10 0.12 0.12 0.12 0.21
0.00 0.00 0.00 0.00 0.00 0.00 0.00 0.00 0.00 0.00 0.00 0.00 0.00 0.00 0.00 0.01 0.01 0.01 0.00 0.00 0.00 0.02 0.05 0.05 0.03 0.02 0.03 0.02 0.02 0.07 0.09 0.21 0.19 0.13 0.08 0.09 0.15 0.21 0.18 0.13 0.11 0.10 0.13
0.00 0.00 0.00 0.00 0.00 0.00 0.00 0.00 0.00 0.00 0.00 0.00 0.00 0.00 0.01 0.06 0.15 0.07 0.02 0.02 0.07 0.14 0.11 0.03 0.01 0.03 0.02 0.05 0.07 0.15 0.16 0.15 0.11 0.07 0.07 0.07 0.11 0.18 0.13 0.12 0.11 0.09 0.08
0.00 0.00 0.00 0.00 0.00 0.00 0.00 0.00 0.00 0.00 0.00 0.00 0.00 0.00 0.01 0.02 0.09 0.09 0.04 0.05 0.03 0.06 0.03 0.02 0.00 0.00 0.03 0.10 0.04 0.01 0.00 0.00 0.00 0.00 0.01 0.01 0.02 0.05 0.05 0.05 0.02 0.02 0.03
0.00 0.00 0.00 0.00 0.00 0.00 0.00 0.00 0.00 0.00 0.00 0.00 0.01 0.06 0.06 0.03 0.01 0.00 0.01 0.06 0.04 0.04 0.03 0.01 0.00 0.00 0.01 0.04 0.06 0.00 0.00 0.00 0.00 0.00 0.00 0.00 0.00 0.00 0.00 0.00 0.00 0.00 0.01
0.00 0.00 0.00 0.00 0.00 0.00 0.00 0.00 0.00 0.00 0.00 0.00 0.00 0.02 0.04 0.02 0.01 0.01 0.00 0.02 0.08 0.06 0.03 0.00 0.00 0.01 0.00 0.00 0.01 0.00 0.00 0.00 0.00 0.00 0.00 0.00 0.00 0.00 0.00 0.00 0.00 0.00 0.00
0.00 0.00 0.00 0.00 0.00 0.00 0.00 0.00 0.00 0.00 0.00 0.00 0.00 0.00 0.00 0.00 0.00 0.00 0.00 0.03 0.06 0.09 0.04 0.01 0.01 0.01 0.01 0.00 0.00 0.00 0.00 0.00 0.00 0.00 0.00 0.00 0.00 0.00 0.00 0.00 0.01 0.01 0.01
0.00 0.00 0.00 0.00 0.00 0.00 0.00 0.00 0.00 0.00 0.00 0.00 0.00 0.00 0.00 0.00 0.00 0.00 0.01 0.04 0.09 0.13 0.08 0.01 0.01 0.00 0.00 0.00 0.00 0.00 0.00 0.00 0.00 0.01 0.00 0.00 0.00 0.01 0.00 0.00 0.01 0.06 0.08
0.00 0.00 0.00 0.00 0.00 0.00 0.00 0.00 0.00 0.00 0.00 0.00 0.00 0.00 0.00 0.00 0.00 0.00 0.00 0.06 0.11 0.06 0.01 0.00 0.00 0.00 0.00 0.00 0.01 0.00 0.00 0.00 0.00 0.01 0.00 0.00 0.00 0.00 0.00 0.00 0.01 0.06 0.13
0.00 0.00 0.00 0.00 0.00 0.00 0.00 0.00 0.00 0.00 0.00 0.00 0.00 0.00 0.00 0.00 0.00 0.00 0.00 0.00 0.00 0.01 0.00 0.00 0.00 0.00 0.00 0.00 0.01 0.00 0.00 0.00 0.00 0.01 0.00 0.00 0.00 0.00 0.00 0.00 0.00 0.00 0.01
0.00 0.00 0.00 0.00 0.00 0.00 0.00 0.00 0.00 0.00 0.00 0.00 0.00 0.00 0.00 0.00 0.00 0.00 0.00 0.00 0.00 0.00 0.00 0.00 0.00 0.00 0.01 0.02 0.01 0.02 0.02 0.00 0.00 0.00 0.00 0.00 0.00 0.00 0.00 0.00 0.00 0.00 0.00
0.00 0.00 0.00 0.00 0.00 0.00 0.00 0.00 0.00 0.00 0.00 0.00 0.00 0.00 0.00 0.00 0.00 0.00 0.00 0.00 0.00 0.00 0.00 0.01 0.01 0.01 0.01 0.02 0.02 0.02 0.01 0.00 0.00 0.00 0.00 0.00 0.00 0.00 0.00 0.00 0.00 0.00 0.00
0.00 0.00 0.00 0.00 0.00 0.00 0.00 0.00 0.00 0.00 0.00 0.00 0.00 0.00 0.00 0.00 0.00 0.00 0.00 0.00 0.00 0.00 0.00 0.01 0.01 0.01 0.00 0.01 0.02 0.02 0.02 0.00 0.00 0.00 0.00 0.00 0.00 0.00 0.00 0.00 0.00 0.00 0.00
0.00 0.00 0.00 0.00 0.00 0.00 0.00 0.00 0.00 0.00 0.00 0.00 0.00 0.00 0.00 0.00 0.00 0.00 0.00 0.00 0.00 0.00 0.00 0.00 0.00 0.01 0.01 0.00 0.01 0.01 0.00 0.00 0.00 0.00 0.00 0.00 0.00 0.00 0.00 0.00 0.00 0.00 0.00
0.00 0.00 0.00 0.00 0.00 0.00 0.00 0.00 0.00 0.00 0.00 0.00 0.00 0.00 0.00 0.00 0.00 0.00 0.00 0.00 0.00 0.00 0.00 0.00 0.00 0.00 0.00 0.01 0.00 0.00 0.00 0.00 0.00 0.00 0.00 0.00 0.00 0.00 0.00 0.00 0.00 0.00 0.00
0.00 0.00 0.00 0.00 0.00 0.00 0.00 0.00 0.00 0.00 0.00 0.00 0.00 0.00 0.00 0.00 0.00 0.00 0.00 0.00 0.00 0.00 0.00 0.00 0.00 0.00 0.00 0.00 0.00 0.00 0.00 0.00 0.00 0.00 0.00 0.00 0.00 0.00 0.00 0.00 0.00 0.00 0.00
0.00 0.00 0.00 0.00 0.00 0.00 0.00 0.00 0.00 0.00 0.00 0.00 0.00 0.00 0.00 0.00 0.00 0.00 0.00 0.00 0.00 0.00 0.00 0.00 0.00 0.00 0.00 0.00 0.00 0.00 0.00 0.00 0.00 0.00 0.00 0.00 0.00 0.00 0.00 0.00 0.00 0.00 0.00
0.00 0.00 0.00 0.00 0.00 0.00 0.00 0.00 0.00 0.00 0.00 0.00 0.00 0.00 0.00 0.00 0.00 0.00 0.00 0.00 0.00 0.00 0.00 0.00 0.00 0.00 0.00 0.00 0.00 0.00 0.00 0.00 0.00 0.00 0.00 0.00 0.00 0.00 0.00 0.00 0.00 0.00 0.00
MSLP
1016.57 1016.35 1016.31 1016.39 1016.32 1016.60 1016.62 1016.88 1017.03 1017.28 1017.54 1017.64 1017.81 1017.90 1017.83 1017.94 1018.15 1018.25 1018.18 1018.14 1018.14 1018.41 1018.70 1018.75 1019.09 1019.39 1019.55 1019.81 1020.06 1020.30 1020.54 1020.78 1020.94 1021.13 1021.24 1021.26 1021.41 1021.65 1021.92 1022.02 1022.18 1022.26 1022.27
1016.14 1016.41 1016.43 1016.51 1016.43 1016.35 1016.31 1016.63 1016.95 1017.20 1017.36 1017.59 1017.68 1017.69 1017.65 1017.80 1017.90 1017.93 1017.87 1017.85 1017.84 1017.98 1018.29 1018.56 1018.74 1018.97 1019.18 1019.34 1019.64 1019.94 1020.14 1020.30 1020.51 1020.75 1021.00 1021.11 1021.18 1021.35 1021.58 1021.80 1021.96 1022.10 1022.13
1016.01 1016.13 1016.27 1016.37 1016.15 1016.06 1016.18 1016.58 1016.92 1017.15 1017.49 1017.59 1017.77 1017.61 1017.66 1017.56 1017.54 1017.46 1017.56 1017.52 1017.56 1017.55 1017.70 1017.93 1018.24 1018.49 1018.71 1018.83 1019.06 1019.40 1019.69 1019.82 1020.09 1020.38 1020.61 1020.74 1020.94 1021.11 1021.28 1021.50 1021.66 1021.81 1021.89
1015.43 1015.67 1016.00 1016.10 1015.87 1016.13 1016.28 1016.56 1016.93 1017.25 1017.47 1017.65 1017.56 1017.43 1017.41 1017.26 1017.27 1017.26 1017.26 1017.26 1017.25 1017.35 1017.36 1017.50 1017.74 1018.06 1018.18 1018.44 1018.56 1018.78 1018.98 1019.20 1019.65 1019.81 1020.01 1020.29 1020.47 1020.65 1020.81 1020.98 1021.19 1021.40 1021.45
1015.15 1015.60 1015.74 1015.60 1015.79 1016.03 1016.37 1016.49 1016.81 1016.98 1017.23 1017.46 1017.50 1017.36 1017.28 1017.20 1017.00 1016.89 1016.99 1016.93 1016.90 1017.01 1017.16 1017.15 1017.33 1017.61 1017.70 1017.67 1017.87 1018.19 1018.52 1018.71 1019.04 1019.35 1019.55 1019.72 1019.94 1020.15 1020.34 1020.52 1020.67 1020.83 1021.04
1014.91 1015.17 1015.37 1015.38 1015.51 1016.01 1016.25 1016.47 1016.64 1016.75 1016.81 1016.97 1017.16 1017.07 1017.00 1016.85 1016.69 1016.67 1016.69 1016.53 1016.61 1016.68 1016.84 1017.00 1017.14 1017.16 1017.13 1017.22 1017.33 1017.62 1017.94 1018.31 1018.50 1018.69 1018.90 1019.14 1019.28 1019.49 1019.74 1019.97 1020.10 1020.17 1020.42
1015.05 1015.23 1015.41 1015.29 1015.35 1015.73 1015.81 1015.99 1016.32 1016.50 1016.57 1016.70 1017.02 1016.91 1016.68 1016.43 1016.36 1016.15 1015.89 1016.06 1016.16 1016.19 1016.42 1016.54 1016.80 1016.87 1016.80 1016.68 1016.80 1017.03 1017.30 1017.61 1017.81 1018.14 1018.31 1018.53 1018.64 1018.65 1018.96 1019.29 1019.42 1019.50 1019.64
1015.22 1015.24 1015.32 1015.37 1015.38 1015.55 1015.61 1015.77 1015.92 1016.07 1016.12 1016.33 1016.56 1016.98 1016.78 1016.45 1015.95 1015.64 1015.67 1015.73 1015.64 1015.64 1015.93 1016.06 1016.28 1016.42 1016.49 1016.50 1016.54 1016.46 1016.64 1016.89 1016.99 1017.61 1018.18 1018.39 1018.51 1018.39 1018.33 1018.52 1018.67 1018.78 1018.88
1015.22 1015.11 1015.10 1015.17 1015.20 1015.25 1015.28 1015.32 1015.43 1015.64 1015.76 1015.89 1015.92 1016.14 1016.53 1016.28 1016.09 1015.52 1015.45 1015.38 1015.54 1015.55 1015.49 1015.66 1015.88 1016.03 1016.09 1016.21 1016.50 1016.55 1016.27 1016.33 1016.75 1017.32 1017.54 1014.76 1017.57 1017.80 1017.67 1017.90 1018.01 1018.09 1018.15
1015.45 1015.26 1015.13 1014.96 1014.99 1014.94 1014.96 1015.00 1015.00 1015.09 1015.38 1015.66 1015.94 1015.79 1015.75 1015.92 1016.23 1016.15 1015.76 1015.41 1015.36 1015.59 1015.70 1015.69 1015.73 1015.79 1015.96 1016.07 1016.17 1016.17 1016.28 1016.36 1016.62 1016.90 1017.24 1017.45 1017.34 1016.99 1016.92 1017.14 1017.34 1017.35 1017.45
1015.66 1015.35 1015.21 1014.88 1014.86 1014.80 1014.80 1014.76 1014.71 1014.77 1014.97 1015.12 1015.38 1015.47 1015.75 1016.06 1016.05 1016.48 1016.22 1015.84 1015.74 1016.13 1016.09 1015.75 1015.74 1015.77 1015.81 1015.96 1016.15 1016.29 1016.43 1016.36 1016.38 1016.85 1016.93 1016.97 1016.81 1017.01 1016.89 1016.87 1016.98 1017.01 1016.96
1015.95 1015.58 1015.31 1015.01 1014.81 1014.71 1014.61 1014.53 1014.44 1014.49 1014.61 1014.67 1014.91 1015.11 1015.22 1015.74 1016.08 1016.39 1016.45 1016.44 1016.41 1016.55 1016.52 1016.40 1016.21 1016.01 1016.21 1016.39 1016.47 1016.33 1016.54 1016.80 1017.09 1017.20 1017.24 1017.15 1016.94 1016.89 1016.77 1016.63 1016.65 1016.53 1016.61
1016.25 1015.97 1015.68 1015.41 1015.17 1014.70 1014.43 1014.40 1014.42 1014.45 1014.38 1014.38 1014.48 1014.75 1015.01 1015.18 1015.27 1015.66 1015.84 1016.20 1016.64 1016.91 1016.85 1016.84 1016.68 1016.43 1016.53 1016.76 1016.71 1016.76 1016.93 1017.25 1017.47 1017.60 1017.54 1017.35 1016.99 1016.77 1016.53 1016.42 1016.27 1016.27 1016.23
1016.37 1016.07 1015.75 1015.44 1015.12 1014.82 1014.72 1014.57 1014.58 1014.59 1014.45 1014.34 1014.33 1014.61 1014.82 1014.82 1014.82 1015.05 1015.40 1015.86 1016.68 1017.07 1017.16 1017.14 1017.15 1016.97 1017.15 1017.36 1017.31 1017.51 1017.77 1017.80 1017.85 1017.75 1017.65 1017.51 1017.19 1016.95 1016.88 1016.66 1016.45 1016.44 1016.23
1016.40 1016.14 1015.91 1015.84 1015.77 1015.58 1015.38 1015.23 1015.09 1015.06 1014.84 1014.69 1014.58 1014.55 1014.70 1014.78 1014.70 1014.75 1014.97 1015.27 1015.73 1016.77 1017.24 1017.36 1017.51 1017.61 1017.71 1017.73 1017.87 1018.10 1018.28 1018.35 1018.23 1018.16 1018.12 1017.97 1017.71 1017.42 1017.17 1017.05 1016.93 1016.78 1016.67
1016.62 1016.70 1016.51 1016.34 1016.33 1016.19 1016.09 1015.73 1015.77 1015.64 1015.33 1015.39 1015.22 1015.02 1015.02 1015.03 1014.92 1014.93 1015.05 1015.26 1015.54 1016.16 1017.00 1017.35 1017.78 1018.04 1018.13 1018.39 1018.51 1018.60 1018.73 1018.69 1018.68 1018.59 1018.41 1018.25 1018.04 1017.89 1017.73 1017.62 1017.50 1017.31 1017.21
1017.01 1016.99 1017.07 1016.91 1016.76 1016.68 1016.65 1016.36 1016.38 1016.38 1016.26 1016.19 1015.93 1015.73 1015.71 1015.54 1015.40 1015.25 1015.24 1015.44 1015.73 1015.90 1016.74 1017.60 1017.90 1018.36 1018.75 1019.05 1019.14 1019.16 1019.32 1019.36 1019.39 1019.22 1019.07 1018.97 1018.81 1018.71 1018.53 1018.46 1018.32 1018.10 1017.89
1017.47 1017.43 1017.41 1017.42 1017.41 1017.31 1017.23 1017.09 1017.13 1017.11 1017.06 1016.94 1016.86 1016.59 1016.45 1016.16 1016.12 1016.01 1015.92 1015.93 1015.91 1015.99 1016.49 1017.40 1018.21 1018.84 1019.33 1019.61 1019.69 1019.80 1020.01 1020.00 1019.94 1019.86 1019.79 1019.74 1019.68 1019.52 1019.44 1019.40 1019.26 1019.15 1018.97
1017.82 1017.87 1017.92 1017.94 1017.87 1018.05 1018.00 1017.85 1017.90 1017.92 1017.74 1017.77 1017.62 1017.36 1017.14 1016.86 1016.82 1016.75 1016.65 1016.59 1016.50 1016.43 1016.71 1017.30 1018.28 1019.01 1019.68 1019.99 1020.18 1020.37 1020.52 1020.62 1020.60 1020.47 1020.48 1020.31 1020.26 1020.13 1020.01 1019.96 1019.89 1019.98 1019.89
1018.10 1018.24 1018.49 1018.45 1018.41 1018.46 1018.54 1018.52 1018.47 1018.48 1018.44 1018.41 1018.35 1018.14 1017.89 1017.71 1017.62 1017.47 1017.31 1017.15 1016.94 1017.00 1017.37 1017.97 1018.67 1019.22 1019.69 1020.26 1020.40 1020.71 1021.02 1021.18 1021.28 1021.15 1021.12 1021.03 1020.78 1020.59 1020.54 1020.50 1020.55 1020.53 1020.51
1018.38 1018.64 1018.82 1018.73 1018.96 1019.01 1019.07 1019.10 1019.03 1019.07 1019.08 1019.03 1018.96 1018.75 1018.58 1018.30 1018.02 1017.82 1017.72 1017.84 1017.75 1017.87 1018.12 1018.52 1018.96 1019.49 1019.86 1020.30 1020.53 1020.82 1021.24 1021.40 1021.47 1021.48 1021.58 1021.59 1021.44 1021.39 1021.29 1021.25 1021.21 1021.23 1021.18
1018.77 1018.78 1019.08 1019.08 1019.34 1019.62 1019.42 1019.34 1019.48 1019.52 1019.51 1019.54 1019.62 1019.38 1019.15 1018.90 1018.63 1018.48 1018.38 1018.38 1018.36 1018.48 1018.76 1019.08 1019.47 1019.75 1020.00 1020.27 1020.56 1020.87 1021.23 1021.48 1021.67 1021.67 1021.92 1022.13 1022.15 1022.25 1022.23 1021.99 1021.90 1021.97 1021.96
1018.99 1019.14 1019.33 1019.47 1019.73 1019.83 1019.71 1019.64 1019.73 1019.90 1020.02 1020.20 1020.18 1020.07 1019.88 1019.72 1019.45 1019.22 1019.13 1019.07 1019.09 1019.11 1019.12 1019.21 1019.78 1020.08 1020.21 1020.29 1020.56 1020.91 1021.21 1021.38 1021.61 1021.80 1021.95 1022.24 1022.23 1022.53 1022.65 1022.60 1022.39 1022.43 1022.44
1018.94 1019.38 1019.67 1019.91 1020.01 1020.24 1020.11 1020.08 1020.19 1020.31 1020.52 1020.67 1020.68 1020.64 1020.58 1020.49 1020.34 1020.14 1020.04 1020.07 1020.15 1020.03 1020.02 1020.06 1020.17 1020.31 1020.21 1020.20 1020.37 1020.78 1021.08 1021.59 1021.88 1021.96 1021.98 1022.46 1022.57 1022.66 1022.57 1022.76 1022.61 1022.66 1022.74
1019.10 1019.60 1020.05 1020.29 1020.37 1020.55 1020.50 1020.52 1020.59 1020.82 1021.02 1021.08 1021.03 1020.96 1020.93 1020.96 1020.81 1020.76 1020.75 1021.02 1021.06 1020.96 1020.64 1020.52 1020.58 1020.65 1020.67 1020.60 1020.80 1021.16 1021.54 1021.68 1021.97 1021.89 1021.80 1022.32 1022.71 1022.84 1022.84 1022.91 1022.75 1022.67 1022.80
1019.18 1019.75 1020.49 1020.82 1020.87 1020.83 1020.74 1020.68 1020.76 1021.03 1021.45 1021.52 1021.43 1021.39 1021.21 1021.26 1021.03 1021.09 1021.32 1021.50 1021.66 1021.73 1021.38 1021.18 1021.27 1021.31 1021.33 1021.38 1021.27 1021.31 1021.46 1021.71 1021.78 1021.87 1021.73 1022.22 1022.68 1022.84 1023.09 1022.85 1022.80 1022.82 1022.96
Thickness
5743 5744 5745 5744 5746 5744 5745 5744 5744 5742 5740 5739 5739 5740 5742 5742 5741 5741 5742 5742 5745 5744 5743 5742 5742 5742 5741 5739 5736 5733 5731 5728 5727 5726 5726 5726 5726 5725 5724 5724 5723 5723 5723
5744 5742 5743 5742 5744 5744 5745 5743 5742 5740 5739 5738 5737 5738 5740 5739 5738 5739 5740 5741 5742 5744 5742 5741 5741 5741 5741 5739 5737 5734 5731 5728 5725 5726 5725 5725 5726 5725 5725 5723 5722 5722 5723
5744 5743 5742 5742 5744 5743 5742 5740 5738 5737 5735 5735 5734 5735 5736 5737 5737 5738 5739 5741 5742 5742 5743 5742 5742 5741 5741 5740 5738 5737 5733 5729 5726 5727 5725 5726 5726 5726 5725 5724 5722 5722 5723
5748 5745 5743 5743 5743 5741 5739 5738 5736 5733 5732 5730 5732 5734 5735 5735 5733 5734 5735 5739 5740 5741 5742 5741 5741 5740 5740 5740 5740 5738 5737 5735 5731 5730 5730 5728 5726 5726 5726 5725 5724 5722 5722
5747 5743 5743 5744 5742 5740 5738 5737 5734 5733 5730 5728 5728 5730 5732 5732 5731 5734 5735 5737 5738 5739 5740 5741 5740 5739 5740 5742 5742 5740 5737 5736 5734 5732 5731 5730 5728 5727 5726 5726 5725 5724 5722
5747 5746 5744 5743 5741 5738 5735 5733 5731 5730 5730 5729 5728 5730 5731 5732 5732 5734 5734 5735 5736 5738 5738 5739 5739 5738 5740 5741 5741 5740 5738 5735 5734 5733 5732 5731 5730 5728 5727 5726 5726 5726 5724
5744 5743 5740 5740 5739 5737 5736 5734 5731 5729 5728 5727 5725 5724 5728 5731 5733 5735 5736 5736 5737 5736 5737 5738 5738 5739 5741 5742 5741 5740 5737 5736 5735 5732 5733 5731 5730 5731 5728 5727 5727 5728 5727
5741 5740 5739 5739 5738 5737 5736 5733 5731 5729 5727 5725 5721 5717 5716 5722 5730 5734 5736 5737 5739 5738 5738 5737 5738 5738 5739 5741 5741 5741 5740 5738 5738 5732 5727 5725 5724 5727 5729 5728 5728 5728 5728
5738 5738 5737 5737 5738 5737 5736 5734 5731 5728 5724 5724 5724 5720 5710 5713 5718 5730 5732 5735 5735 5737 5738 5737 5738 5737 5740 5741 5739 5739 5740 5738 5735 5731 5727 5723 5726 5727 5729 5727 5726 5726 5727
5734 5734 5734 5735 5737 5737 5736 5734 5733 5729 5724 5719 5719 5721 5722 5720 5713 5711 5724 5730 5733 5732 5733 5735 5736 5737 5738 5738 5735 5736 5734 5733 5730 5729 5725 5723 5724 5728 5729 5728 5726 5726 5726
5729 5731 5733 5735 5736 5738 5736 5733 5731 5729 5726 5721 5719 5718 5716 5714 5715 5709 5709 5719 5724 5724 5727 5732 5732 5733 5734 5732 5731 5730 5727 5727 5726 5722 5723 5722 5722 5722 5723 5723 5722 5722 5722
5729 5730 5731 5733 5734 5735 5734 5733 5731 5728 5725 5724 5721 5719 5717 5712 5709 5706 5707 5710 5712 5715 5719 5721 5725 5727 5726 5724 5723 5725 5722 5719 5716 5714 5714 5713 5712 5714 5716 5718 5718 5719 5719
5724 5726 5728 5730 5731 5733 5733 5732 5729 5726 5724 5723 5722 5719 5718 5717 5716 5713 5713 5709 5705 5708 5710 5714 5716 5718 5718 5717 5717 5717 5715 5712 5709 5707 5706 5706 5705 5709 5711 5712 5715 5715 5716
5723 5726 5728 5729 5730 5730 5730 5730 5727 5724 5724 5722 5722 5718 5716 5717 5718 5716 5714 5709 5702 5697 5703 5705 5708 5709 5709 5707 5707 5707 5705 5703 5701 5701 5700 5699 5700 5702 5703 5705 5708 5708 5710
5724 5725 5725 5726 5725 5725 5725 5725 5723 5721 5721 5720 5720 5719 5716 5716 5718 5717 5717 5716 5710 5699 5697 5700 5701 5701 5701 5700 5700 5698 5695 5694 5694 5693 5691 5691 5693 5694 5695 5696 5697 5698 5699
5723 5721 5721 5722 5722 5721 5720 5721 5719 5717 5718 5716 5717 5717 5716 5716 5717 5716 5715 5715 5714 5707 5693 5698 5696 5695 5694 5692 5691 5690 5687 5686 5685 5685 5685 5685 5686 5685 5685 5685 5685 5686 5686
5719 5718 5716 5718 5718 5717 5715 5716 5715 5713 5713 5712 5713 5713 5711 5713 5713 5715 5715 5713 5710 5709 5701 5694 5693 5689 5686 5683 5681 5680 5678 5677 5675 5674 5674 5674 5675 5674 5672 5672 5673 5674 5674
5713 5713 5713 5712 5712 5712 5711 5711 5710 5709 5709 5708 5707 5708 5708 5710 5709 5709 5709 5709 5709 5707 5702 5694 5687 5681 5676 5673 5671 5670 5667 5667 5666 5665 5664 5663 5662 5662 5661 5661 5661 5660 5660
5709 5709 5708 5708 5708 5705 5705 5705 5704 5703 5704 5703 5702 5703 5704 5706 5704 5703 5703 5703 5703 5702 5698 5692 5683 5676 5669 5665 5663 5660 5659 5657 5655 5655 5653 5652 5650 5650 5649 5647 5646 5643 5643
5706 5704 5702 5703 5703 5701 5700 5699 5698 5697 5697 5697 5695 5697 5698 5698 5696 5696 5695 5695 5696 5694 5689 5683 5675 5669 5664 5658 5656 5653 5649 5645 5643 5641 5639 5637 5637 5636 5635 5633 5630 5629 5629
5702 5699 5698 5699 5697 5696 5694 5693 5692 5691 5690 5689 5688 5689 5690 5691 5692 5691 5689 5687 5686 5684 5680 5674 5668 5662 5657 5651 5648 5643 5638 5634 5631 5628 5626 5623 5622 5620 5618 5616 5614 5612 5611
5697 5696 5693 5693 5691 5687 5688 5690 5687 5685 5684 5682 5680 5680 5681 5682 5683 5683 5681 5680 5677 5674 5670 5665 5659 5654 5649 5644 5639 5634 5628 5625 5623 5617 5613 5610 5607 5603 5600 5599 5597 5595 5593
5693 5691 5688 5686 5684 5682 5683 5684 5682 5678 5676 5673 5672 5671 5671 5671 5671 5671 5670 5668 5665 5663 5660 5656 5648 5643 5638 5634 5629 5624 5619 5617 5611 5605 5602 5598 5595 5590 5587 5584 5583 5581 5579
5692 5686 5683 5680 5679 5677 5677 5677 5675 5672 5668 5665 5663 5661 5660 5659 5658 5657 5655 5652 5648 5646 5643 5640 5636 5632 5629 5625 5620 5616 5611 5603 5597 5594 5591 5586 5582 5579 5576 5573 5571 5569 5568
5690 5683 5678 5675 5675 5672 5671 5671 5669 5664 5659 5656 5655 5654 5651 5649 5648 5646 5642 5637 5633 5630 5628 5626 5622 5618 5614 5611 5607 5601 5596 5593 5587 5585 5581 5574 5569 5566 5565 5564 5562 5560 5559
5687 5681 5673 5668 5668 5667 5666 5665 5663 5658 5651 5648 5645 5643 5641 5639 5637 5633 5629 5624 5619 5615 5612 5610 5606 5602 5600 5596 5593 5590 5586 5583 5580 5575 5573 5567 5560 5558 5556 5555 5553 5551 5549